GFSGL_con_lsi_159.txt.gz
Lid_Strength_Index
4 4 3 3 2 1 1 1 1 1 1 1 1 1 2 2 2 2 2 2 3 3 3 1 2 1 1 1 1 1 2 2 4 7 7 7 8 9 9 9 9 9 8
4 4 4 3 3 2 1 1 1 1 1 1 1 1 2 2 2 3 3 3 3 3 3 2 2 2 2 1 2 2 2 2 3 7 10 11 9 9 10 11 12 11 11
4 4 4 4 3 2 2 1 1 1 1 1 1 2 2 2 3 3 3 3 3 3 3 3 3 2 3 2 2 3 3 6 6 8 12 12 12 12 12 12 13 13 12
4 4 4 4 4 3 2 1 1 1 1 1 2 2 2 2 2 3 3 2 3 3 4 3 2 3 3 3 4 4 6 8 9 11 13 13 13 13 13 13 15 14 13
4 4 4 4 4 3 3 2 1 1 1 1 2 3 3 3 2 3 4 3 4 4 4 4 3 5 8 5 5 7 8 10 12 12 13 13 13 14 14 13 13 13 12
4 4 4 4 4 3 3 2 2 2 1 2 2 4 4 4 7 8 5 3 4 5 5 6 7 12 10 10 9 9 7 8 11 11 13 13 13 14 12 12 13 14 13
5 5 5 5 5 4 3 3 3 3 3 2 3 4 5 4 8 9 9 3 4 4 5 8 11 12 12 11 11 10 10 9 9 9 11 11 12 13 12 13 14 14 14
6 6 6 7 7 6 5 4 3 2 3 4 4 4 5 5 10 10 10 5 5 6 8 9 10 13 12 13 13 13 14 14 12 11 10 11 11 11 11 13 14 15 15
7 7 7 7 7 7 8 7 6 5 5 6 7 9 8 9 10 11 11 8 13 13 13 12 12 12 13 12 14 15 16 15 13 11 10 10 10 10 13 14 15 15 16
7 8 8 8 8 8 8 8 9 9 9 10 11 10 10 10 11 11 10 11 13 14 14 14 13 13 12 12 13 15 16 16 14 13 13 13 13 13 14 14 14 15 15
7 8 9 9 9 9 9 9 10 11 11 12 13 14 13 12 12 11 10 11 12 14 15 15 15 12 12 12 12 13 14 14 13 14 14 15 15 16 16 16 15 15 16
7 8 9 9 9 9 10 10 12 11 12 12 13 14 14 14 13 11 11 10 11 13 14 15 14 13 13 12 14 13 13 13 13 14 15 16 16 16 16 16 16 16 16
9 10 9 9 9 9 10 11 12 12 11 12 12 13 14 15 13 12 12 12 12 14 15 14 13 13 13 14 13 13 14 13 14 14 15 16 16 16 17 17 17 18 18
10 10 9 9 9 9 10 10 11 12 12 12 12 13 15 14 15 14 14 14 15 15 14 14 14 14 14 14 14 14 14 13 14 14 16 17 17 18 17 17 17 17 18
10 10 9 9 9 9 9 9 10 11 11 11 12 13 14 15 14 13 14 14 15 15 15 15 16 15 16 15 14 14 14 14 15 16 17 17 17 17 17 17 18 18 19
11 10 9 9 8 9 9 10 10 10 11 11 10 12 13 11 13 12 13 13 14 14 15 16 16 16 16 15 15 15 15 15 16 16 16 17 17 17 18 18 18 19 19
11 10 10 10 9 9 10 10 11 12 11 11 11 12 12 13 13 13 13 13 13 13 15 15 15 15 15 15 15 16 16 16 16 16 17 17 17 17 19 18 18 19 19
11 11 10 10 10 9 10 11 11 12 13 14 12 12 12 13 13 13 13 14 16 15 16 16 16 16 16 16 16 16 17 17 17 17 17 17 18 18 19 19 18 19 19
11 11 10 10 10 10 9 11 11 12 13 14 14 14 14 13 13 13 14 15 16 17 16 16 16 16 16 15 15 16 17 17 17 17 17 18 18 19 19 19 19 20 21
12 11 11 10 10 10 10 12 12 13 14 14 14 15 14 14 15 15 15 16 16 17 16 16 16 15 15 15 15 16 17 17 18 18 19 19 19 19 20 20 21 21 21
14 12 11 9 9 10 11 12 12 14 14 14 15 14 14 15 15 16 16 16 16 17 17 17 17 17 17 17 17 18 18 19 19 20 20 20 21 21 22 21 22 23 23
14 12 10 10 10 12 12 13 14 15 15 16 15 14 14 16 17 19 19 19 19 18 18 18 19 19 19 19 20 20 20 21 22 22 23 23 23 24 24 24 25 25 25
13 12 10 11 13 14 15 15 15 17 16 17 18 19 19 20 21 22 22 22 22 22 21 22 22 23 23 23 22 21 22 23 23 23 24 25 25 25 26 26 26 28 28
12 12 15 17 17 17 17 17 18 19 20 21 21 21 22 22 23 24 24 24 24 24 24 24 24 25 25 26 26 26 26 26 26 26 25 26 27 28 28 28 28 29 29
16 17 17 18 19 20 21 21 21 22 22 23 23 23 23 24 25 25 25 25 25 26 26 26 26 26 27 27 27 27 25 27 27 27 27 28 28 29 31 31 31 31 31
19 19 20 20 21 21 22 22 23 23 24 24 23 24 24 25 26 26 26 26 26 27 27 27 27 27 28 28 28 28 25 26 28 27 28 29 30 31 31 32 33 32 32

GFSGL_con_lsi_162.txt.gz
Lid_Strength_Index
5 6 6 6 5 4 4 3 1 1 1 1 1 1 1 1 1 2 2 2 2 3 3 3 3 3 3 3 3 1 2 2 4 6 8 9 9 9 9 9 9 8 7
5 5 5 6 5 5 4 3 2 1 1 1 1 1 1 1 1 2 2 2 3 3 3 3 3 3 4 3 3 3 2 2 3 4 10 11 10 10 10 11 10 9 9
5 6 6 6 6 6 5 3 2 2 1 1 1 1 1 1 1 1 2 2 3 3 3 3 3 4 4 3 3 4 3 4 3 8 11 13 13 13 13 12 12 12 10
5 6 6 6 5 5 5 4 3 2 2 1 1 1 1 1 1 2 2 2 3 3 3 3 3 4 4 3 3 4 4 5 5 10 13 14 14 14 13 14 14 13 12
6 6 6 6 5 5 5 5 4 3 2 1 2 2 1 2 1 2 2 3 3 4 4 4 4 5 8 5 4 4 5 7 8 11 14 14 15 15 14 13 13 13 12
6 6 6 6 6 6 6 6 5 4 3 2 2 2 2 2 5 7 5 3 3 4 5 5 4 11 9 9 9 8 5 6 9 11 14 14 14 14 14 14 14 13 13
7 7 7 7 7 7 7 7 7 6 4 3 2 2 3 2 6 7 8 3 3 4 4 5 6 7 9 7 10 10 10 8 7 9 11 13 13 13 13 14 13 13 13
8 8 9 10 9 9 9 9 8 7 7 5 4 3 3 2 6 7 8 4 3 4 4 6 9 11 10 10 11 12 12 12 11 10 9 11 11 13 12 13 12 14 15
9 10 10 10 10 10 10 9 9 9 9 8 7 6 5 4 6 7 7 5 6 6 6 8 8 10 11 11 12 14 14 14 12 10 11 11 11 12 13 13 14 14 16
9 9 10 10 10 10 10 10 10 9 10 9 9 8 7 6 6 7 7 5 7 10 13 12 13 10 12 11 12 14 14 15 15 14 14 14 14 13 13 13 12 13 15
9 9 10 10 11 10 10 10 9 9 10 9 10 9 8 8 7 8 8 6 8 11 11 13 13 11 12 11 11 13 14 15 15 16 17 17 17 17 17 15 14 13 15
10 10 9 9 10 10 10 10 9 9 10 10 10 10 9 10 11 8 9 9 7 11 12 12 13 12 12 12 14 13 14 15 16 16 17 18 18 18 18 16 16 16 16
11 10 10 10 10 10 10 10 9 9 9 10 9 10 9 11 11 10 9 9 10 11 12 12 12 12 12 13 13 14 15 16 17 17 18 18 18 18 18 17 18 17 18
11 10 11 11 11 10 10 10 9 9 9 9 9 9 9 12 12 12 12 12 13 14 13 13 13 13 13 14 15 15 16 16 16 17 18 18 19 18 18 17 18 18 19
10 10 11 11 11 11 10 9 9 8 8 9 9 9 10 11 11 10 11 13 13 13 14 15 15 15 16 17 17 16 16 16 17 18 19 19 19 18 18 18 18 19 19
11 11 11 11 11 11 10 10 8 8 8 8 8 8 9 9 9 10 11 12 12 12 13 15 15 15 16 17 17 17 17 17 18 18 18 18 18 18 19 19 19 19 19
12 12 12 12 12 11 11 10 10 8 8 8 8 8 8 8 10 10 11 11 12 11 13 13 15 15 16 17 17 17 18 18 18 18 18 18 17 18 19 20 20 19 20
13 13 13 12 12 11 11 10 10 9 10 10 9 9 8 9 10 11 10 11 13 13 14 14 15 16 17 17 17 18 18 18 18 18 18 17 17 18 19 20 20 20 21
14 13 13 13 12 12 11 10 9 9 9 9 9 10 10 9 10 10 11 13 13 15 15 15 15 16 17 17 17 18 18 18 18 18 17 18 18 19 20 20 20 21 23
16 15 15 15 14 13 11 11 10 9 8 8 10 10 11 12 12 13 13 14 15 15 16 16 16 16 17 17 17 17 18 18 18 18 18 19 19 19 20 21 21 24 25
17 17 16 16 15 14 12 11 10 9 9 9 9 10 11 12 13 14 16 16 16 16 16 16 16 16 16 16 17 17 17 18 18 19 19 20 20 21 22 22 23 25 25
19 19 18 17 15 14 12 10 9 8 8 9 10 11 11 13 14 15 16 16 16 16 16 17 18 17 17 17 17 18 19 20 20 21 22 22 23 24 24 25 25 26 27
20 20 19 17 16 14 11 9 8 8 9 9 11 13 15 17 20 20 21 21 20 20 20 21 21 22 21 20 19 19 21 21 22 22 23 24 25 25 26 26 27 28 29
21 19 18 16 14 12 11 10 11 12 13 15 18 19 21 22 23 23 23 23 22 22 22 23 24 24 24 24 24 24 24 24 23 23 24 25 26 27 27 27 28 29 29
19 18 16 15 14 15 16 17 17 19 20 21 23 23 24 24 24 25 24 24 24 24 25 25 25 25 26 26 26 25 24 25 26 25 26 26 27 28 29 28 30 31 34
18 18 18 18 18 18 19 20 21 22 23 23 24 24 24 25 25 25 25 25 26 26 26 26 26 27 27 27 26 26 25 25 27 27 27 27 28 30 30 31 32 34 36

GFSGL_con_lsi_168.txt.gz
Lid_Strength_Index
7 7 8 8 7 7 7 7 6 6 5 5 4 3 2 1 1 2 2 1 1 2 2 2 2 2 2 2 2 2 3 4 6 5 6 7 8 7 9 8 8 8 8
7 8 8 8 7 7 7 7 6 6 6 6 5 5 4 3 1 1 1 1 2 2 2 2 2 1 2 2 2 2 3 2 4 5 5 10 8 8 7 9 11 10 8
8 8 8 8 8 7 7 7 7 7 7 6 6 6 5 4 3 1 1 1 1 1 1 2 2 2 2 2 2 2 2 2 3 4 5 11 11 13 13 12 12 12 11
8 9 9 9 8 8 7 7 7 7 8 8 7 7 6 5 4 3 1 1 1 1 1 1 1 2 2 2 2 2 2 2 3 4 5 13 14 15 12 11 14 14 13
8 9 9 8 8 8 8 8 8 9 8 8 8 8 7 6 5 4 3 2 1 2 1 1 1 3 7 4 2 2 2 3 3 5 6 14 15 16 13 13 10 12 14
9 10 9 9 10 9 9 9 9 9 9 9 9 9 9 8 7 7 6 5 3 2 2 1 1 6 6 9 8 7 3 3 3 4 7 9 10 10 11 12 12 16 16
10 10 10 10 10 10 10 10 10 10 10 10 10 10 10 9 7 7 7 7 6 5 3 2 2 1 6 3 5 7 7 7 5 3 5 7 7 10 10 12 12 12 11
10 10 11 11 11 11 11 11 11 11 11 10 10 10 9 9 7 7 7 7 6 6 5 3 2 2 2 4 3 3 3 4 4 5 3 3 4 7 9 9 11 13 16
11 11 11 11 12 12 12 12 11 12 11 11 10 10 11 10 8 8 8 8 8 7 6 5 4 4 4 6 4 4 5 4 5 8 7 6 7 8 9 13 15 15 16
10 11 11 11 12 12 11 11 12 12 11 11 11 11 11 11 9 8 8 9 9 8 7 7 7 6 5 5 4 4 5 5 9 12 13 10 9 11 11 9 13 14 17
11 11 11 11 11 11 11 11 11 11 11 12 11 11 11 10 10 8 7 9 9 9 9 8 6 6 6 6 5 4 5 5 11 13 15 15 14 13 15 14 14 12 15
11 12 12 12 11 10 11 11 11 13 12 12 12 12 10 10 10 9 8 7 7 8 9 8 7 6 6 6 6 5 6 9 14 14 14 15 15 15 16 16 15 16 16
12 12 12 11 11 11 12 11 11 12 13 12 12 12 11 10 10 9 8 7 7 8 8 8 7 7 7 6 6 6 9 12 13 14 14 14 14 16 17 18 19 19 19
14 14 12 12 12 11 11 11 12 12 12 12 12 12 12 11 10 10 10 10 9 8 9 8 8 7 7 7 9 8 9 11 12 13 14 17 17 17 17 18 19 19 20
17 16 16 15 14 13 12 12 11 11 11 12 12 12 12 12 11 9 10 9 9 9 9 9 9 9 9 11 11 11 12 12 13 14 17 17 17 18 18 18 19 20 21
19 19 18 17 17 16 15 15 11 11 10 10 10 10 11 10 9 9 9 9 8 8 9 10 10 10 10 11 11 12 12 13 14 15 16 17 18 18 19 18 19 20 21
21 20 20 19 19 18 17 17 16 14 11 11 11 11 11 10 10 10 9 9 8 8 10 10 10 9 10 10 11 12 12 12 13 14 15 16 17 18 19 19 19 20 22
23 22 22 21 20 19 18 18 16 16 16 16 13 12 12 11 10 10 9 9 10 9 9 9 9 9 9 10 11 11 11 13 13 14 16 17 17 19 19 19 20 21 21
25 24 23 22 22 21 20 19 18 18 18 18 17 16 14 12 11 10 9 10 10 10 9 9 7 7 8 8 10 10 13 14 15 16 17 18 18 18 19 19 20 20 21
25 24 23 23 22 21 21 21 21 20 20 19 19 18 16 14 14 13 11 10 9 9 8 8 8 7 8 8 10 12 14 16 16 17 17 18 18 18 19 20 20 21 21
24 24 24 24 24 24 23 23 22 22 21 21 20 18 15 15 15 13 11 9 8 8 8 8 8 8 8 9 11 14 16 16 16 17 18 17 18 19 19 20 20 21 22
26 26 26 26 25 25 24 24 23 23 22 21 20 18 15 15 14 13 11 10 8 8 8 8 8 9 10 11 12 15 16 16 17 18 18 18 19 20 20 21 21 22 23
26 26 26 25 25 25 24 24 23 23 22 21 20 18 17 16 14 13 10 8 8 9 9 10 11 11 11 13 14 15 17 17 17 18 19 19 20 20 21 21 22 23 24
26 26 26 25 24 24 24 23 22 21 20 20 19 18 16 15 13 12 14 14 14 14 13 12 12 12 14 16 16 17 17 17 17 18 18 19 21 21 22 23 23 24 25
25 25 24 24 23 22 20 19 18 18 17 17 17 17 18 19 19 18 18 17 17 17 17 16 16 16 18 18 19 19 19 19 19 19 19 20 21 22 23 24 25 25 27
24 23 23 23 22 22 22 22 21 21 22 22 22 21 21 21 21 20 20 20 21 21 21 21 21 21 21 21 21 21 20 20 21 21 21 22 23 24 24 25 26 27 28

GFSGL_con_lsi_171.txt.gz
Lid_Strength_Index
9 9 9 10 9 9 9 9 9 8 8 8 7 6 6 5 4 3 2 1 1 1 1 1 2 1 1 1 1 1 2 2 4 3 2 2 4 4 4 5 4 4 4
10 10 10 10 10 10 10 9 9 9 8 8 8 7 6 6 5 5 4 3 2 2 2 2 2 1 2 1 1 2 2 2 3 4 3 2 5 4 3 5 6 6 6
11 11 11 11 11 11 10 9 9 9 9 9 8 8 8 7 6 5 5 4 3 2 1 1 2 1 2 2 2 2 2 2 2 3 3 2 3 9 6 7 6 7 7
11 12 12 12 11 10 10 9 9 9 9 9 9 9 8 8 8 7 6 5 5 4 3 1 1 1 2 2 2 2 2 2 2 3 3 3 5 10 7 7 12 13 9
11 11 11 11 10 10 10 9 9 10 10 10 10 10 10 9 8 8 8 8 7 6 5 4 2 3 6 5 2 2 2 3 3 4 4 4 8 14 11 8 8 7 11
10 11 10 10 10 10 10 10 11 11 11 11 11 10 10 10 8 8 8 8 8 8 8 6 4 6 4 5 6 6 4 2 3 4 4 4 4 8 6 7 8 15 14
10 10 11 11 12 12 12 12 12 12 11 11 11 11 11 10 8 8 8 8 8 8 8 7 6 5 6 3 3 4 5 6 6 3 3 3 4 5 6 8 9 11 8
10 11 11 12 12 12 13 13 12 12 12 11 11 11 11 10 8 7 8 8 9 8 8 8 8 7 6 5 4 4 3 2 2 4 3 2 2 2 4 6 7 11 15
11 12 12 12 13 13 13 12 12 12 12 12 12 11 11 10 8 8 8 9 10 10 9 9 8 8 7 6 6 6 5 4 3 4 4 4 4 5 5 7 12 13 16
12 12 12 12 13 13 12 12 12 13 11 11 11 11 11 11 9 8 8 10 11 10 10 10 10 10 8 7 7 6 6 5 5 6 7 5 6 6 7 7 8 12 14
13 13 13 13 13 12 12 12 12 12 12 12 11 11 11 11 11 9 8 10 10 10 10 10 10 8 8 7 7 7 7 6 6 6 6 8 10 10 8 8 8 9 12
13 13 13 14 13 12 13 12 12 13 13 12 12 12 11 11 10 9 8 8 8 10 10 10 9 8 8 8 8 7 7 6 7 7 8 8 10 12 14 14 14 15 14
16 16 16 15 14 13 13 13 13 13 12 12 12 12 12 11 11 9 8 8 8 9 9 9 8 8 8 8 8 8 8 8 8 8 9 9 10 12 14 16 17 17 19
20 19 18 17 17 16 15 14 14 13 13 13 13 13 12 12 12 12 12 12 11 10 9 9 9 9 9 9 10 9 9 8 8 8 8 10 13 13 15 16 17 18 19
21 20 20 19 19 18 17 16 15 14 13 13 13 12 13 13 12 10 10 11 11 10 10 10 11 11 10 10 10 9 9 9 9 8 10 13 13 13 15 15 16 16 18
23 22 21 21 20 20 20 19 16 15 14 13 12 12 12 11 10 10 10 10 10 10 11 12 12 11 11 10 10 10 9 10 9 9 11 12 13 14 15 16 16 17 18
25 24 23 23 23 23 22 22 22 19 15 14 14 13 12 12 12 12 11 11 11 11 12 12 12 11 11 10 10 10 10 9 9 10 11 12 13 14 15 17 17 18 19
26 26 25 25 24 24 23 23 22 22 22 21 17 15 14 14 13 13 13 13 15 14 13 13 12 11 11 10 10 9 9 9 9 10 11 12 13 15 16 17 17 19 20
27 26 26 25 25 24 24 24 23 23 22 21 21 19 18 16 15 15 14 16 16 15 13 12 11 11 10 10 9 9 9 8 9 10 10 11 13 15 17 18 18 19 20
27 26 25 25 25 25 24 24 24 24 24 23 23 22 21 20 21 20 18 17 16 14 13 12 11 10 9 9 8 8 8 8 9 10 11 12 14 15 17 18 19 20 21
26 26 26 26 26 26 26 26 26 26 25 25 24 22 19 20 20 20 19 18 17 15 14 12 10 8 8 8 8 8 8 9 10 11 12 13 15 17 17 18 20 21 23
27 27 27 27 26 26 26 25 25 25 25 25 24 23 19 21 21 20 19 18 17 15 13 12 10 9 8 8 8 9 10 11 12 12 12 15 16 17 19 20 22 22 23
26 27 27 27 26 26 26 26 26 25 25 24 24 23 22 22 21 20 19 17 15 14 12 10 10 9 8 7 7 9 11 11 12 12 14 17 18 19 20 21 22 23 23
26 26 27 27 26 26 25 25 24 23 23 21 21 21 20 20 19 18 16 15 14 14 14 13 11 9 8 9 10 10 10 11 12 13 16 18 19 20 21 21 22 23 24
27 27 27 27 27 26 25 24 23 22 21 21 20 20 20 20 20 20 20 20 20 19 19 17 15 13 12 12 12 13 13 13 15 16 17 18 20 21 21 22 23 24 25
25 26 26 25 25 25 24 25 25 24 24 24 23 23 23 23 23 23 23 22 22 21 20 19 18 16 15 15 14 14 15 16 17 18 19 20 21 22 22 24 24 26 26